Weather History for Albany, NY

Change the Weather History Date:

Thursday, April 25, 2013

  Actual Average Record
Temperature  
Mean Temperature 47 °F 52 °F  
Max Temperature 57 °F 63 °F 89 °F (2009)
Min Temperature 37 °F 41 °F 23 °F (1965)
Degree Days  
Heating Degree Days 18 14  
Month to date heating degree days 508 457  
Since 1 July heating degree days 6005 6330  
Cooling Degree Days 0 0  
Month to date cooling degree days 0 0  
Year to date cooling degree days 0 0  
Moisture  
Dew Point 30 °F    
Average Humidity 50    
Maximum Humidity 70    
Minimum Humidity 30    
Precipitation  
Precipitation T in 0.10 in 1.75 in (1945)
Month to date precipitation 2.44 2.63  
Year to date precipitation 8.06 10.63  
Snow  
Snow 0.00 in 0.10 in 0.30 in (1928)
Month to date snowfall 1.2 2.2  
Since 1 July snowfall 51.4 58.9  
Snow Depth 0.00 in    
Sea Level Pressure  
Sea Level Pressure 30.14 in    
Wind  
Wind Speed 10 mph (NW)    
Max Wind Speed 25 mph    
Max Gust Speed 36 mph    
Visibility 10 miles    
Events Rain    
T = Trace of Precipitation, MM = Missing Value Source: NWS Daily Summary

Daily Weather History Graph

Daily Weather History Graph

Search for Another Location

Airport:

Trip Planner

Search our weather history database for the weather conditions in past years. The results will help you decide how hot, cold, wet, or windy it might be!

Date:

Astronomy

Apr. 25, 2013 Rise Set
Actual Time 5:57 AM EDT 7:49 PM EDT
Civil Twilight 5:27 AM EDT 8:19 PM EDT
Nautical Twilight 4:50 AM EDT 8:56 PM EDT
Astronomical Twilight 4:10 AM EDT 9:36 PM EDT
Moon 7:59 PM EDT (4/25) 5:39 AM EDT (4/25)
Length of Visible Light 14h 51m
Length of Day
13h 51m
Full, 100% of the Moon is Illuminated
Apr 25
Full
Apr 25
Full
May 2
Last Quarter
May 9
New
May 18
First Quarter

Hourly Weather History & Observations

Time (EDT) Temp. Windchill Dew Point Humidity Pressure Visibility Wind Dir Wind Speed Gust Speed Precip Events Conditions
12:05 AM 60.8 °F - 48.2 °F 63% 29.79 in 10.0 mi WNW 15.0 mph 25.3 mph 0.00 in Rain Light Rain
12:51 AM 52.0 °F - 44.1 °F 74% 29.85 in 10.0 mi West 18.4 mph 32.2 mph 0.05 in Rain Light Rain
1:51 AM 48.0 °F - 39.0 °F 71% 29.94 in 10.0 mi West 16.1 mph 34.5 mph 0.00 in   Overcast
2:51 AM 46.0 °F 40.6 °F 35.1 °F 66% 29.99 in 10.0 mi WNW 11.5 mph 23.0 mph N/A   Overcast
3:51 AM 44.1 °F 38.6 °F 35.1 °F 71% 30.02 in 10.0 mi WNW 10.4 mph - N/A   Mostly Cloudy
4:24 AM 42.8 °F 34.3 °F 32.0 °F 66% 30.04 in 10.0 mi NW 19.6 mph 35.7 mph N/A   Mostly Cloudy
4:51 AM 42.1 °F 33.6 °F 30.9 °F 65% 30.05 in 10.0 mi WNW 18.4 mph 24.2 mph N/A   Mostly Cloudy
5:51 AM 41.0 °F 33.5 °F 30.9 °F 67% 30.08 in 10.0 mi WNW 13.8 mph 23.0 mph N/A   Scattered Clouds
6:51 AM 41.0 °F 33.9 °F 30.9 °F 67% 30.13 in 10.0 mi WNW 12.7 mph 21.9 mph N/A   Scattered Clouds
7:51 AM 43.0 °F 35.1 °F 28.9 °F 58% 30.15 in 10.0 mi WNW 17.3 mph 24.2 mph N/A   Mostly Cloudy
8:51 AM 42.1 °F 34.5 °F 30.0 °F 62% 30.18 in 10.0 mi NW 15.0 mph 21.9 mph N/A   Overcast
9:51 AM 43.0 °F 34.8 °F 28.9 °F 58% 30.21 in 10.0 mi West 18.4 mph 24.2 mph N/A   Overcast
10:51 AM 44.1 °F 36.8 °F 28.9 °F 55% 30.23 in 10.0 mi West 16.1 mph 23.0 mph N/A   Mostly Cloudy
11:51 AM 46.9 °F - 28.9 °F 50% 30.23 in 10.0 mi NW 12.7 mph 24.2 mph N/A   Scattered Clouds
12:51 PM 50.0 °F - 30.0 °F 46% 30.22 in 10.0 mi WNW 15.0 mph 21.9 mph N/A   Partly Cloudy
1:51 PM 51.1 °F - 28.0 °F 41% 30.22 in 10.0 mi NW 11.5 mph 20.7 mph N/A   Partly Cloudy
2:51 PM 54.0 °F - 28.0 °F 37% 30.21 in 10.0 mi NW 11.5 mph 19.6 mph N/A   Clear
3:51 PM 54.0 °F - 26.1 °F 34% 30.19 in 10.0 mi Variable 6.9 mph - N/A   Partly Cloudy
4:51 PM 57.0 °F - 26.1 °F 30% 30.19 in 10.0 mi NW 10.4 mph - N/A   Clear
5:51 PM 55.9 °F - 25.0 °F 30% 30.19 in 10.0 mi North 5.8 mph - N/A   Clear
6:51 PM 55.0 °F - 24.1 °F 30% 30.20 in 10.0 mi North 5.8 mph - N/A   Clear
7:51 PM 53.1 °F - 24.1 °F 32% 30.22 in 10.0 mi NE 3.5 mph - N/A   Clear
8:51 PM 46.9 °F - 27.0 °F 46% 30.24 in 10.0 mi SSW 3.5 mph - N/A   Clear
9:51 PM 43.0 °F - 28.9 °F 58% 30.27 in 10.0 mi Calm Calm - N/A   Clear
10:51 PM 42.1 °F - 28.9 °F 60% 30.27 in 10.0 mi Calm Calm - N/A   Clear
11:51 PM 41.0 °F - 28.9 °F 62% 30.27 in 10.0 mi Calm Calm - N/A   Partly Cloudy